Location: Bun
(42.9667°N, 0.1500°W)
Time: 15:26:00
(UTC+00:00)

ATLAS 2AS CENTAUR R/B - Pass Details

Date: 03 February 2023
Orbit: 986 x 1226 km, 63.7° (Epoch: 31 January)

Event Time Altitude Azimuth Distance (km) Brightness Sun altitude
Rises 18:23:08 0° 323° (NW) 3,957 6.0 -12.7°
Reaches altitude 10° 18:25:53 10° 324° (NW) 2,960 5.4 -13.2°
Maximum altitude 18:32:54 90° 232° (SW) 1,056 2.7 -14.4°
Drops below altitude 10° 18:39:29 10° 146° (SSE) 2,789 4.6 -15.6°
Sets 18:42:00 0° 147° (SSE) 3,715 5.3 -16.1°
